Chillicothe, MO

12:17 PM CST on December 15, 2019 (GMT -0600)
Chillicothe

Weather History for KCDJ - August, 2019

Change the Weather History Date:

Wednesday, August 21, 2019

  Actual Average (KIRK) Record (KIRK)
Temperature  
Mean Temperature 76 °F -  
Max Temperature 82 °F 83 °F 103 °F (1936)
Min Temperature 70 °F 62 °F 43 °F (1950)
Cooling Degree Days 10    
Growing Degree Days 26 (Base 50)    
Moisture  
Dew Point 71 °F    
Average Humidity 89    
Maximum Humidity 97    
Minimum Humidity 74    
Precipitation  
Precipitation 1.05 in - - ()
Sea Level Pressure  
Sea Level Pressure 29.98 in    
Wind  
Wind Speed 3 mph (NNE)    
Max Wind Speed 15 mph    
Max Gust Speed 32 mph    
Averages and records for this station are not official NWS values.
T = Trace of Precipitation, MM = Missing Value Source: NWS Daily Summary

Daily Weather History Graph

Daily Weather History Graph

Search for Another Location

Airport or City:

Astronomy

Aug. 21, 2019 Rise Set
Actual Time 6:31 AM CDT 8:02 PM CDT
Civil Twilight 6:03 AM CDT 8:30 PM CDT
Nautical Twilight 5:29 AM CDT 9:05 PM CDT
Astronomical Twilight 4:52 AM CDT 9:41 PM CDT
Moon 11:21 PM CDT (8/21) 12:07 PM CDT (8/21)
Length of Visible Light 14h 27m
Length of Day
13h 30m
Waning Gibbous, 69% of the Moon is Illuminated
Aug 21
Waning Gibbous
Aug 23
Last Quarter
Aug 30
New
Sep 5
First Quarter
Sep 13
Full

Hourly Weather History & Observations

Time (CDT) Temp. Heat Index Dew Point Humidity Pressure Visibility Wind Dir Wind Speed Gust Speed Precip Events Conditions
12:52 AM 73.0 °F - 72.0 °F 96% 29.98 in - Calm Calm - N/A   Unknown
2:52 AM 72.0 °F - 71.1 °F 97% 29.91 in - Calm Calm - N/A   Unknown
3:52 AM 73.9 °F - 72.0 °F 93% 29.91 in - Calm Calm - N/A   Unknown
4:52 AM 75.0 °F - 72.0 °F 90% 29.92 in - NE 3.5 mph - N/A   Unknown
5:52 AM 75.0 °F - 72.0 °F 90% 30.00 in - West 15.0 mph 32.2 mph 0.01 in   Unknown
6:52 AM 71.1 °F - 68.0 °F 90% 29.99 in - North - - 0.91 in   Unknown
7:52 AM 70.0 °F - 69.1 °F 97% 30.01 in - Calm Calm - 0.04 in   Unknown
8:52 AM 71.1 °F - 69.1 °F 93% 30.03 in - South 4.6 mph - 0.05 in   Unknown
9:52 AM 72.0 °F - 70.0 °F 93% 30.01 in - Calm Calm - N/A   Unknown
10:52 AM 73.0 °F - 71.1 °F 93% 30.02 in - Variable 3.5 mph - N/A   Unknown
11:52 AM 75.0 °F - 72.0 °F 90% 30.03 in - NE 4.6 mph - N/A   Unknown
12:52 PM 75.9 °F - 71.1 °F 85% 29.98 in - NE 9.2 mph 18.4 mph N/A   Unknown
1:52 PM 80.1 °F 83.8 °F 72.0 °F 76% 30.02 in - Calm Calm - N/A   Unknown
2:52 PM 81.0 °F 85.2 °F 72.0 °F 74% 30.00 in - Variable 3.5 mph - N/A   Unknown
3:52 PM 80.1 °F 83.8 °F 72.0 °F 76% 29.96 in - SSE 4.6 mph - N/A   Unknown
4:52 PM 79.0 °F - 72.0 °F 79% 29.97 in - WNW 4.6 mph - N/A   Unknown
5:52 PM 78.1 °F - 73.0 °F 84% 29.97 in - Variable 3.5 mph - N/A   Unknown
6:52 PM 77.0 °F - 73.0 °F 88% 29.97 in - Calm Calm - N/A   Unknown
7:52 PM 75.9 °F - 73.0 °F 91% 29.97 in - Calm Calm - N/A   Unknown
8:52 PM 75.0 °F - 72.0 °F 90% 29.98 in - NNE 4.6 mph - 0.01 in   Unknown
10:52 PM 73.0 °F - 70.0 °F 90% 30.00 in - NNE 8.1 mph - N/A   Unknown
11:52 PM 72.0 °F - 71.1 °F 97% 30.02 in - Calm Calm - 0.03 in   Unknown